EXS66FT LGSK-EGNT

Flight info

Callsign EXS66FT
Flight time 3h 30m
Altitude 34000
Route IBIDI UL617 AGISA DCT TALAS DCT MODRA DCT LURID DCT VAMET DCT ESEGA/N0449F360 DCT EKSOS L604 RELBI L602 RKN L980 TENLI L602 ERKIT DCT ETSES
Aircraft B738/M-SDE2E3FGHIRWXY/LB1

Departure

Time 2026-05-08 18:02
Airport Skiathos Island National Airport (LGSK)

Arrival

Time 2026-05-08 21:33
Airport Newcastle International Airport (EGNT)
Time Latitude Longitude Altitude Speed Heading
2026-05-08 17:07 39.17876 23.50214 62 ft 0 kts 329°
2026-05-08 17:57 39.17882 23.50215 54 ft 2 kts
2026-05-08 17:57 39.17884 23.50239 57 ft 4 kts 109°
2026-05-08 17:58 39.17848 23.50272 55 ft 9 kts 160°
2026-05-08 17:58 39.17767 23.50254 58 ft 15 kts 195°
2026-05-08 17:58 39.17698 23.50314 56 ft 12 kts 118°
2026-05-08 17:58 39.17620 23.50325 58 ft 13 kts 199°
2026-05-08 17:59 39.17523 23.50282 51 ft 16 kts 199°
2026-05-08 17:59 39.17406 23.50230 44 ft 19 kts 199°
2026-05-08 17:59 39.17266 23.50169 33 ft 22 kts 198°
2026-05-08 17:59 39.17163 23.50123 28 ft 10 kts 199°
2026-05-08 18:00 39.17089 23.50090 22 ft 12 kts 201°
2026-05-08 18:00 39.17014 23.50071 17 ft 7 kts 51°
2026-05-08 18:00 39.17062 23.50078 19 ft 6 kts 18°
2026-05-08 18:01 39.17063 23.50079 19 ft 0 kts 18°
2026-05-08 18:01 39.17118 23.50102 25 ft 36 kts 19°
2026-05-08 18:02 39.17597 23.50317 56 ft 108 kts 19°
2026-05-08 18:02 39.18162 23.50567 72 ft 150 kts 19°
2026-05-08 18:02 39.19552 23.51181 1015 ft 156 kts 18°
2026-05-08 18:02 39.20646 23.51661 1492 ft 180 kts 19°
2026-05-08 18:03 39.21909 23.52222 1827 ft 204 kts 20°
2026-05-08 18:03 39.23280 23.52825 2411 ft 214 kts 19°
2026-05-08 18:03 39.24716 23.53460 2948 ft 223 kts 19°
2026-05-08 18:03 39.26199 23.54141 3479 ft 230 kts 25°
2026-05-08 18:04 39.27395 23.55486 4032 ft 231 kts 63°
2026-05-08 18:04 39.27826 23.57441 4586 ft 229 kts 95°
2026-05-08 18:04 39.27518 23.59441 5122 ft 228 kts 113°
2026-05-08 18:04 39.26989 23.61400 5633 ft 234 kts 114°
2026-05-08 18:05 39.26171 23.63185 6117 ft 231 kts 145°
2026-05-08 18:05 39.24777 23.64055 6617 ft 220 kts 179°
2026-05-08 18:05 39.23287 23.63959 7156 ft 212 kts 201°
2026-05-08 18:05 39.21895 23.63395 7737 ft 209 kts 206°
2026-05-08 18:06 39.20517 23.62763 7951 ft 210 kts 207°
2026-05-08 18:06 39.19194 23.62010 7944 ft 210 kts 224°
2026-05-08 18:06 39.18295 23.60539 8010 ft 212 kts 249°
2026-05-08 18:06 39.18061 23.58610 8073 ft 233 kts 276°
2026-05-08 18:07 39.18618 23.56578 8504 ft 252 kts 300°
2026-05-08 18:07 39.19564 23.55260 9055 ft 262 kts 314°
2026-05-08 18:07 39.19818 23.54998 9198 ft 263 kts 316°
2026-05-08 18:07 39.21329 23.53635 10036 ft 266 kts 319°
2026-05-08 18:08 39.22912 23.52322 10504 ft 280 kts 320°
2026-05-08 18:08 39.24626 23.50910 10667 ft 304 kts 320°
2026-05-08 18:08 39.26448 23.49408 10870 ft 324 kts 321°
2026-05-08 18:08 39.28401 23.47797 11403 ft 332 kts 321°
2026-05-08 18:09 39.30326 23.46204 12093 ft 335 kts 321°
2026-05-08 18:09 39.32290 23.44573 12814 ft 337 kts 320°
2026-05-08 18:09 39.34268 23.42919 13531 ft 340 kts 320°
2026-05-08 18:09 39.36275 23.41232 14047 ft 348 kts 321°
2026-05-08 18:10 39.38323 23.39505 14617 ft 352 kts 322°
2026-05-08 18:10 39.40379 23.37769 15267 ft 354 kts 322°
2026-05-08 18:10 39.42451 23.36018 15887 ft 357 kts 322°
2026-05-08 18:10 39.44537 23.34252 16477 ft 361 kts 322°
2026-05-08 18:11 39.46646 23.32463 17055 ft 364 kts 322°
2026-05-08 18:11 39.48778 23.30653 17635 ft 367 kts 322°
2026-05-08 18:11 39.50923 23.28830 18213 ft 371 kts 322°
2026-05-08 18:11 39.53090 23.26987 18724 ft 374 kts 322°
2026-05-08 18:12 39.55271 23.25130 19235 ft 377 kts 322°
2026-05-08 18:12 39.57475 23.23253 19740 ft 380 kts 323°
2026-05-08 18:12 39.59691 23.21364 20239 ft 383 kts 323°
2026-05-08 18:12 39.61928 23.19454 20654 ft 388 kts 323°
2026-05-08 18:13 39.64197 23.17517 21103 ft 391 kts 323°
2026-05-08 18:13 39.66480 23.15566 21604 ft 393 kts 324°
2026-05-08 18:13 39.68768 23.13610 22085 ft 396 kts 324°
2026-05-08 18:13 39.71053 23.11654 22536 ft 399 kts 324°
2026-05-08 18:14 39.73374 23.09665 22970 ft 402 kts 324°
2026-05-08 18:14 39.75718 23.07656 23390 ft 406 kts 324°
2026-05-08 18:14 39.78114 23.05600 23797 ft 408 kts 324°
2026-05-08 18:14 39.80465 23.03581 24177 ft 410 kts 324°
2026-05-08 18:15 39.82847 23.01534 24561 ft 412 kts 324°
2026-05-08 18:15 39.85242 22.99473 24942 ft 414 kts 324°
2026-05-08 18:15 39.87661 22.97390 25205 ft 419 kts 324°
2026-05-08 18:15 39.90101 22.95287 25505 ft 422 kts 324°
2026-05-08 18:16 39.92556 22.93170 25887 ft 424 kts 324°
2026-05-08 18:16 39.95033 22.91031 26142 ft 428 kts 324°
2026-05-08 18:16 39.97514 22.88888 26554 ft 428 kts 324°
2026-05-08 18:16 39.99995 22.86743 26930 ft 429 kts 324°
2026-05-08 18:17 40.02491 22.84582 27262 ft 431 kts 324°
2026-05-08 18:17 40.04995 22.82413 27557 ft 434 kts 324°
2026-05-08 18:17 40.07512 22.80230 27857 ft 436 kts 324°
2026-05-08 18:17 40.10051 22.78026 28169 ft 438 kts 324°
2026-05-08 18:18 40.12595 22.75816 28402 ft 441 kts 325°
2026-05-08 18:18 40.15159 22.73586 28636 ft 445 kts 325°
2026-05-08 18:18 40.17744 22.71336 28961 ft 446 kts 325°
2026-05-08 18:18 40.20313 22.69099 29402 ft 444 kts 325°
2026-05-08 18:19 40.22881 22.66861 29881 ft 441 kts 325°
2026-05-08 18:19 40.25401 22.64661 30264 ft 441 kts 325°
2026-05-08 18:19 40.27947 22.62437 30575 ft 440 kts 325°
2026-05-08 18:19 40.30494 22.60210 30937 ft 439 kts 324°
2026-05-08 18:20 40.33021 22.57998 31347 ft 436 kts 324°
2026-05-08 18:20 40.35534 22.55797 31757 ft 433 kts 324°
2026-05-08 18:20 40.38042 22.53598 31989 ft 435 kts 324°
2026-05-08 18:20 40.40570 22.51379 32070 ft 440 kts 324°
2026-05-08 18:21 40.44790 22.47673 32058 ft 434 kts 324°
2026-05-08 18:21 40.49743 22.43322 32064 ft 424 kts 323°
2026-05-08 18:22 40.54641 22.39004 32075 ft 423 kts 323°
2026-05-08 18:22 40.59525 22.34688 32072 ft 423 kts 323°
2026-05-08 18:23 40.64406 22.30367 32075 ft 423 kts 323°
2026-05-08 18:23 40.69320 22.26010 32069 ft 423 kts 323°
2026-05-08 18:24 40.74175 22.21696 32073 ft 423 kts 323°
2026-05-08 18:24 40.79061 22.17349 32074 ft 424 kts 323°
2026-05-08 18:25 40.83966 22.12975 32081 ft 425 kts 323°
2026-05-08 18:25 40.88867 22.08598 32069 ft 426 kts 323°
2026-05-08 18:26 40.93775 22.04207 32073 ft 427 kts 323°
2026-05-08 18:26 40.98668 21.99820 32069 ft 427 kts 323°
2026-05-08 18:27 41.02787 21.96121 32059 ft 427 kts 323°
2026-05-08 18:27 41.08467 21.90926 32061 ft 425 kts 319°
2026-05-08 18:28 41.12955 21.85842 32067 ft 425 kts 316°
2026-05-08 18:28 41.17368 21.80604 32068 ft 426 kts 316°
2026-05-08 18:29 41.21816 21.75358 32058 ft 428 kts 316°
2026-05-08 18:29 41.26291 21.70123 32056 ft 429 kts 316°
2026-05-08 18:30 41.30779 21.64885 32039 ft 430 kts 316°
2026-05-08 18:30 41.35277 21.59630 32050 ft 430 kts 316°
2026-05-08 18:31 41.39762 21.54378 32052 ft 431 kts 316°
2026-05-08 18:31 41.44273 21.49085 32047 ft 431 kts 316°
2026-05-08 18:32 41.48769 21.43801 32046 ft 430 kts 316°
2026-05-08 18:32 41.53245 21.38529 32043 ft 430 kts 316°
2026-05-08 18:33 41.57729 21.33238 32042 ft 429 kts 316°
2026-05-08 18:33 41.62194 21.27958 32046 ft 429 kts 316°
2026-05-08 18:34 41.66654 21.22673 32035 ft 429 kts 316°
2026-05-08 18:34 41.71114 21.17380 32036 ft 428 kts 316°
2026-05-08 18:35 41.75571 21.12080 32043 ft 428 kts 316°
2026-05-08 18:35 41.80011 21.06788 32037 ft 428 kts 316°
2026-05-08 18:36 41.84452 21.01487 32041 ft 427 kts 316°
2026-05-08 18:36 41.88903 20.96162 32041 ft 428 kts 316°
2026-05-08 18:37 41.93320 20.90868 32041 ft 428 kts 316°
2026-05-08 18:37 41.97758 20.85539 32044 ft 428 kts 316°
2026-05-08 18:38 42.02203 20.80190 32053 ft 429 kts 316°
2026-05-08 18:38 42.06653 20.74826 32043 ft 430 kts 316°
2026-05-08 18:39 42.11105 20.69449 32047 ft 430 kts 316°
2026-05-08 18:39 42.15565 20.64050 32043 ft 431 kts 316°
2026-05-08 18:40 42.20028 20.58638 32042 ft 432 kts 316°
2026-05-08 18:40 42.24488 20.53219 32045 ft 432 kts 316°
2026-05-08 18:41 42.28956 20.47779 32036 ft 432 kts 316°
2026-05-08 18:41 42.33416 20.42338 32040 ft 432 kts 316°
2026-05-08 18:42 42.37868 20.36895 32038 ft 432 kts 316°
2026-05-08 18:42 42.42303 20.31463 32042 ft 432 kts 316°
2026-05-08 18:43 42.46757 20.25997 32033 ft 433 kts 316°
2026-05-08 18:43 42.51218 20.20511 32038 ft 433 kts 316°
2026-05-08 18:44 42.55672 20.15023 32039 ft 433 kts 316°
2026-05-08 18:44 42.60123 20.09526 32036 ft 433 kts 316°
2026-05-08 18:45 42.64572 20.04022 32047 ft 433 kts 316°
2026-05-08 18:45 42.69021 19.98507 32039 ft 433 kts 315°
2026-05-08 18:46 42.73473 19.92976 32028 ft 434 kts 315°
2026-05-08 18:46 42.77917 19.87443 32032 ft 434 kts 315°
2026-05-08 18:47 42.82372 19.81887 32032 ft 433 kts 315°
2026-05-08 18:47 42.86813 19.76336 32029 ft 433 kts 315°
2026-05-08 18:48 42.91241 19.70789 32031 ft 433 kts 315°
2026-05-08 18:48 42.95675 19.65224 32027 ft 432 kts 315°
2026-05-08 18:49 43.00073 19.59695 32034 ft 432 kts 315°
2026-05-08 18:49 43.04802 19.54605 32035 ft 434 kts 322°
2026-05-08 18:50 43.09743 19.49845 32032 ft 435 kts 323°
2026-05-08 18:50 43.14681 19.45075 32035 ft 435 kts 322°
2026-05-08 18:51 43.19608 19.40238 32028 ft 435 kts 322°
2026-05-08 18:51 43.24524 19.35367 32032 ft 436 kts 322°
2026-05-08 18:52 43.29441 19.30476 32034 ft 436 kts 322°
2026-05-08 18:52 43.34346 19.25588 32032 ft 437 kts 321°
2026-05-08 18:53 43.39268 19.20673 32027 ft 437 kts 321°
2026-05-08 18:53 43.44197 19.15743 32038 ft 437 kts 321°
2026-05-08 18:54 43.49084 19.10845 32029 ft 438 kts 321°
2026-05-08 18:54 43.54017 19.05890 32025 ft 438 kts 321°
2026-05-08 18:55 43.61397 18.98458 32024 ft 438 kts 321°
2026-05-08 18:56 43.66316 18.93492 32031 ft 438 kts 321°
2026-05-08 18:56 43.71256 18.88493 32114 ft 445 kts 321°
2026-05-08 18:56 43.73767 18.85946 32275 ft 449 kts 321°
2026-05-08 18:57 43.76285 18.83392 32540 ft 449 kts 321°
2026-05-08 18:57 43.77951 18.81701 32780 ft 448 kts 321°
2026-05-08 18:57 43.81287 18.78312 33281 ft 446 kts 321°
2026-05-08 18:57 43.83786 18.75770 33576 ft 446 kts 321°
2026-05-08 18:58 43.86288 18.73222 33842 ft 446 kts 320°
2026-05-08 18:58 43.88784 18.70677 34051 ft 446 kts 320°
2026-05-08 18:58 43.91298 18.68109 34032 ft 450 kts 321°
2026-05-08 18:59 43.96334 18.62959 34024 ft 448 kts 321°
2026-05-08 18:59 44.01307 18.57866 34028 ft 442 kts 320°
2026-05-08 19:00 44.05432 18.53630 34041 ft 443 kts 320°
2026-05-08 19:00 44.11225 18.47668 34038 ft 443 kts 320°
2026-05-08 19:01 44.16185 18.42553 34045 ft 443 kts 320°
2026-05-08 19:01 44.21134 18.37437 34035 ft 444 kts 320°
2026-05-08 19:02 44.26066 18.32329 34042 ft 444 kts 320°
2026-05-08 19:02 44.31022 18.27185 34036 ft 445 kts 320°
2026-05-08 19:03 44.36019 18.21986 34050 ft 445 kts 320°
2026-05-08 19:03 44.40962 18.16834 34037 ft 446 kts 320°
2026-05-08 19:04 44.45938 18.11635 34030 ft 447 kts 320°
2026-05-08 19:04 44.50918 18.06421 34034 ft 447 kts 320°
2026-05-08 19:05 44.55809 18.01067 34043 ft 446 kts 317°
2026-05-08 19:05 44.60539 17.95438 34029 ft 445 kts 316°
2026-05-08 19:06 44.65250 17.89785 34032 ft 445 kts 316°
2026-05-08 19:06 44.69171 17.85114 34036 ft 445 kts 316°
2026-05-08 19:07 44.73902 17.79500 34024 ft 445 kts 316°
2026-05-08 19:07 44.78626 17.73894 34043 ft 444 kts 316°
2026-05-08 19:08 44.83348 17.68281 34047 ft 444 kts 316°
2026-05-08 19:08 44.88064 17.62660 34034 ft 444 kts 316°
2026-05-08 19:09 44.92775 17.57033 34048 ft 444 kts 316°
2026-05-08 19:09 44.97482 17.51397 34039 ft 443 kts 316°
2026-05-08 19:10 45.02185 17.45754 34062 ft 443 kts 316°
2026-05-08 19:10 45.06888 17.40097 34038 ft 443 kts 315°
2026-05-08 19:11 45.11576 17.34447 34029 ft 442 kts 315°
2026-05-08 19:11 45.16223 17.28833 34035 ft 441 kts 315°
2026-05-08 19:12 45.20893 17.23179 34031 ft 440 kts 315°
2026-05-08 19:12 45.25542 17.17538 34038 ft 440 kts 316°
2026-05-08 19:13 45.30194 17.11880 34044 ft 440 kts 315°
2026-05-08 19:13 45.34845 17.06210 34035 ft 441 kts 315°
2026-05-08 19:14 45.39509 17.00512 34034 ft 441 kts 315°
2026-05-08 19:14 45.44169 16.94807 34033 ft 442 kts 315°
2026-05-08 19:15 45.48839 16.89076 34047 ft 443 kts 315°
2026-05-08 19:15 45.53499 16.83345 34038 ft 443 kts 315°
2026-05-08 19:16 45.58160 16.77599 34039 ft 443 kts 315°
2026-05-08 19:16 45.62830 16.71828 34040 ft 444 kts 315°
2026-05-08 19:17 45.67500 16.66045 34036 ft 444 kts 315°
2026-05-08 19:17 45.72171 16.60247 34030 ft 445 kts 315°
2026-05-08 19:18 45.76815 16.54470 34047 ft 444 kts 315°
2026-05-08 19:18 45.81476 16.48658 34032 ft 444 kts 315°
2026-05-08 19:19 45.86138 16.42831 34042 ft 444 kts 315°
2026-05-08 19:19 45.90786 16.37009 34056 ft 443 kts 315°
2026-05-08 19:20 45.95435 16.31171 34044 ft 443 kts 315°
2026-05-08 19:20 46.00074 16.25332 34045 ft 443 kts 315°
2026-05-08 19:21 46.04700 16.19498 34056 ft 442 kts 314°
2026-05-08 19:21 46.09329 16.13644 34048 ft 442 kts 314°
2026-05-08 19:22 46.13953 16.07784 34069 ft 442 kts 314°
2026-05-08 19:22 46.18575 16.01913 34052 ft 442 kts 314°
2026-05-08 19:23 46.23152 15.96085 34043 ft 441 kts 314°
2026-05-08 19:23 46.27752 15.90214 34052 ft 440 kts 314°
2026-05-08 19:24 46.32331 15.84357 34047 ft 439 kts 314°
2026-05-08 19:24 46.36904 15.78495 34052 ft 438 kts 314°
2026-05-08 19:25 46.41467 15.72630 34076 ft 438 kts 314°
2026-05-08 19:25 46.46015 15.66771 34076 ft 438 kts 314°
2026-05-08 19:26 46.50540 15.60929 34076 ft 438 kts 314°
2026-05-08 19:26 46.55114 15.55008 34074 ft 438 kts 314°
2026-05-08 19:27 46.59667 15.49102 34073 ft 439 kts 313°
2026-05-08 19:27 46.64223 15.43178 34065 ft 439 kts 313°
2026-05-08 19:28 46.68773 15.37248 34059 ft 439 kts 313°
2026-05-08 19:28 46.73306 15.31326 34070 ft 440 kts 313°
2026-05-08 19:29 46.77857 15.25366 34070 ft 440 kts 313°
2026-05-08 19:29 46.82425 15.19371 34071 ft 442 kts 313°
2026-05-08 19:30 46.86986 15.13370 34071 ft 442 kts 313°
2026-05-08 19:30 46.91558 15.07340 34062 ft 442 kts 313°
2026-05-08 19:31 46.96110 15.01322 34067 ft 441 kts 312°
2026-05-08 19:31 47.00650 14.95307 34071 ft 440 kts 312°
2026-05-08 19:32 47.05178 14.89292 34092 ft 439 kts 312°
2026-05-08 19:32 47.09693 14.83279 34072 ft 438 kts 312°
2026-05-08 19:33 47.14199 14.77265 34113 ft 436 kts 312°
2026-05-08 19:33 47.18644 14.71318 34103 ft 436 kts 312°
2026-05-08 19:34 47.23131 14.65299 34102 ft 436 kts 312°
2026-05-08 19:34 47.27608 14.59279 34095 ft 437 kts 312°
2026-05-08 19:35 47.32095 14.53232 34091 ft 437 kts 312°
2026-05-08 19:35 47.36583 14.47169 34094 ft 438 kts 312°
2026-05-08 19:36 47.41076 14.41086 34083 ft 438 kts 312°
2026-05-08 19:36 47.45552 14.35012 34096 ft 437 kts 312°
2026-05-08 19:37 47.50025 14.28925 34098 ft 437 kts 312°
2026-05-08 19:37 47.54506 14.22813 34090 ft 437 kts 312°
2026-05-08 19:38 47.58979 14.16696 34087 ft 438 kts 312°
2026-05-08 19:38 47.63456 14.10560 34080 ft 438 kts 312°
2026-05-08 19:39 47.67920 14.04425 34087 ft 439 kts 312°
2026-05-08 19:39 47.69320 14.02497 33466 ft 440 kts 312°
2026-05-08 19:39 47.71331 13.99729 34179 ft 438 kts 313°
2026-05-08 19:40 47.73573 13.96643 34125 ft 437 kts 312°
2026-05-08 19:40 47.78019 13.90499 34125 ft 439 kts 312°
2026-05-08 19:40 47.80263 13.87386 34245 ft 443 kts 312°
2026-05-08 19:41 47.82518 13.84259 34547 ft 442 kts 312°
2026-05-08 19:41 47.84755 13.81159 34914 ft 438 kts 312°
2026-05-08 19:41 47.86986 13.78063 35186 ft 437 kts 312°
2026-05-08 19:41 47.89211 13.74968 35372 ft 438 kts 312°
2026-05-08 19:42 47.91437 13.71866 35570 ft 439 kts 312°
2026-05-08 19:42 47.93662 13.68761 35772 ft 439 kts 312°
2026-05-08 19:42 47.95891 13.65650 36028 ft 435 kts 313°
2026-05-08 19:43 48.00308 13.59473 36055 ft 435 kts 313°
2026-05-08 19:43 48.04727 13.53273 36067 ft 437 kts 312°
2026-05-08 19:44 48.09146 13.47059 36065 ft 438 kts 312°
2026-05-08 19:44 48.13585 13.40804 36060 ft 440 kts 312°
2026-05-08 19:45 48.18043 13.34507 36074 ft 440 kts 312°
2026-05-08 19:45 48.22488 13.28210 36056 ft 440 kts 312°
2026-05-08 19:46 48.26931 13.21902 36058 ft 439 kts 312°
2026-05-08 19:46 48.33725 13.12716 36072 ft 438 kts 316°
2026-05-08 19:47 48.38404 13.06897 36061 ft 437 kts 316°
2026-05-08 19:47 48.43098 13.01038 36071 ft 435 kts 316°
2026-05-08 19:48 48.47712 12.95212 36066 ft 434 kts 316°
2026-05-08 19:48 48.52345 12.89323 36063 ft 433 kts 316°
2026-05-08 19:49 48.56934 12.83470 36072 ft 432 kts 316°
2026-05-08 19:49 48.61516 12.77612 36078 ft 432 kts 316°
2026-05-08 19:50 48.66107 12.71728 36078 ft 433 kts 316°
2026-05-08 19:50 48.70709 12.65816 36075 ft 433 kts 316°
2026-05-08 19:51 48.74534 12.60892 36087 ft 434 kts 316°
2026-05-08 19:51 48.79133 12.54957 36085 ft 435 kts 316°
2026-05-08 19:52 48.83736 12.49002 36084 ft 436 kts 316°
2026-05-08 19:52 48.88357 12.43010 36096 ft 437 kts 316°
2026-05-08 19:53 48.92983 12.36995 36094 ft 440 kts 316°
2026-05-08 19:53 48.97668 12.30885 36110 ft 448 kts 316°
2026-05-08 19:54 49.02398 12.24703 36101 ft 453 kts 316°
2026-05-08 19:54 49.07211 12.18398 36100 ft 454 kts 316°
2026-05-08 19:55 49.11969 12.12149 36117 ft 455 kts 316°
2026-05-08 19:55 49.16765 12.05834 36106 ft 454 kts 316°
2026-05-08 19:56 49.21546 11.99520 36111 ft 454 kts 316°
2026-05-08 19:56 49.26316 11.93202 36107 ft 453 kts 316°
2026-05-08 19:57 49.31075 11.86884 36108 ft 452 kts 316°
2026-05-08 19:57 49.35822 11.80564 36114 ft 451 kts 316°
2026-05-08 19:58 49.40536 11.74272 36113 ft 451 kts 316°
2026-05-08 19:58 49.45266 11.67941 36120 ft 451 kts 316°
2026-05-08 19:59 49.50000 11.61589 36115 ft 451 kts 316°
2026-05-08 19:59 49.54716 11.55242 36112 ft 450 kts 316°
2026-05-08 20:00 49.59429 11.48883 36117 ft 450 kts 316°
2026-05-08 20:00 49.64138 11.42514 36123 ft 450 kts 316°
2026-05-08 20:01 49.68654 11.35833 36129 ft 449 kts 311°
2026-05-08 20:01 49.72941 11.28841 36126 ft 449 kts 311°
2026-05-08 20:02 49.77281 11.21883 36131 ft 449 kts 312°
2026-05-08 20:02 49.81618 11.14918 36131 ft 449 kts 312°
2026-05-08 20:03 49.85902 11.07865 36128 ft 449 kts 310°
2026-05-08 20:03 49.90034 11.00595 36145 ft 449 kts 309°
2026-05-08 20:04 49.94142 10.93288 36136 ft 449 kts 309°
2026-05-08 20:04 49.98270 10.85983 36133 ft 450 kts 309°
2026-05-08 20:05 50.02400 10.78690 36142 ft 449 kts 309°
2026-05-08 20:05 50.06516 10.71414 36140 ft 449 kts 309°
2026-05-08 20:06 50.10646 10.64093 36135 ft 449 kts 309°
2026-05-08 20:06 50.14740 10.56813 36141 ft 449 kts 309°
2026-05-08 20:07 50.18856 10.49473 36135 ft 450 kts 309°
2026-05-08 20:07 50.22972 10.42111 36135 ft 450 kts 309°
2026-05-08 20:08 50.27081 10.34742 36134 ft 450 kts 309°
2026-05-08 20:08 50.31185 10.27360 36151 ft 449 kts 309°
2026-05-08 20:09 50.35285 10.19965 36138 ft 450 kts 309°
2026-05-08 20:09 50.39379 10.12558 36191 ft 452 kts 309°
2026-05-08 20:10 50.41435 10.08830 36378 ft 451 kts 309°
2026-05-08 20:10 50.43485 10.05109 36621 ft 450 kts 309°
2026-05-08 20:10 50.45528 10.01395 36878 ft 449 kts 309°
2026-05-08 20:10 50.47561 9.97694 37109 ft 447 kts 309°
2026-05-08 20:11 50.51642 9.90245 37144 ft 451 kts 309°
2026-05-08 20:11 50.55717 9.82788 37144 ft 448 kts 309°
2026-05-08 20:12 50.59764 9.75361 37138 ft 446 kts 309°
2026-05-08 20:12 50.63787 9.67956 37140 ft 444 kts 309°
2026-05-08 20:13 50.67792 9.60565 37139 ft 443 kts 309°
2026-05-08 20:13 50.71784 9.53172 37146 ft 443 kts 309°
2026-05-08 20:14 50.75778 9.45757 37136 ft 443 kts 309°
2026-05-08 20:14 50.79780 9.38306 37143 ft 445 kts 309°
2026-05-08 20:15 50.83761 9.30871 37152 ft 447 kts 309°
2026-05-08 20:15 50.85774 9.27104 36986 ft 450 kts 309°
2026-05-08 20:15 50.87801 9.23304 36719 ft 452 kts 309°
2026-05-08 20:16 50.89823 9.19508 36471 ft 449 kts 309°
2026-05-08 20:16 50.91827 9.15744 36235 ft 446 kts 309°
2026-05-08 20:16 50.95829 9.08204 36159 ft 448 kts 309°
2026-05-08 20:17 50.99838 9.00629 36162 ft 449 kts 309°
2026-05-08 20:17 51.03853 8.93021 36145 ft 448 kts 309°
2026-05-08 20:18 51.07851 8.85423 36150 ft 447 kts 308°
2026-05-08 20:18 51.11834 8.77829 36149 ft 447 kts 308°
2026-05-08 20:19 51.15805 8.70238 36152 ft 446 kts 308°
2026-05-08 20:19 51.19767 8.62641 36152 ft 446 kts 308°
2026-05-08 20:20 51.23729 8.55020 36160 ft 446 kts 308°
2026-05-08 20:20 51.27688 8.47382 36162 ft 446 kts 308°
2026-05-08 20:21 51.31642 8.39732 36152 ft 447 kts 308°
2026-05-08 20:21 51.35599 8.32055 36152 ft 447 kts 308°
2026-05-08 20:22 51.39551 8.24361 36152 ft 447 kts 308°
2026-05-08 20:22 51.42834 8.17955 36150 ft 448 kts 308°
2026-05-08 20:23 51.47460 8.08897 36151 ft 448 kts 308°
2026-05-08 20:23 51.51387 8.01187 36149 ft 447 kts 308°
2026-05-08 20:24 51.55302 7.93474 36161 ft 447 kts 308°
2026-05-08 20:24 51.59227 7.85718 36150 ft 446 kts 308°
2026-05-08 20:25 51.62675 7.77410 36161 ft 445 kts 300°
2026-05-08 20:25 51.65708 7.68754 36157 ft 444 kts 299°
2026-05-08 20:26 51.68736 7.60091 36154 ft 444 kts 299°
2026-05-08 20:26 51.71803 7.51432 36153 ft 444 kts 300°
2026-05-08 20:27 51.74877 7.42798 36146 ft 444 kts 300°
2026-05-08 20:27 51.77951 7.34150 36149 ft 443 kts 300°
2026-05-08 20:28 51.81010 7.25512 36147 ft 443 kts 300°
2026-05-08 20:28 51.84067 7.16851 36153 ft 442 kts 300°
2026-05-08 20:29 51.87085 7.08268 36142 ft 442 kts 300°
2026-05-08 20:29 51.90113 6.99626 36145 ft 441 kts 300°
2026-05-08 20:30 51.93134 6.90977 36147 ft 440 kts 300°
2026-05-08 20:30 51.96139 6.82340 36144 ft 440 kts 300°
2026-05-08 20:31 51.99136 6.73700 36144 ft 439 kts 300°
2026-05-08 20:31 52.02122 6.65062 36144 ft 438 kts 300°
2026-05-08 20:32 52.05096 6.56425 36145 ft 438 kts 300°
2026-05-08 20:32 52.08066 6.47772 36142 ft 438 kts 300°
2026-05-08 20:33 52.11024 6.39126 36134 ft 437 kts 300°
2026-05-08 20:33 52.13976 6.30466 36148 ft 436 kts 300°
2026-05-08 20:34 52.16417 6.23281 36146 ft 435 kts 300°
2026-05-08 20:35 52.20787 6.10369 36151 ft 434 kts 300°
2026-05-08 20:35 52.23696 6.01736 36151 ft 433 kts 300°
2026-05-08 20:36 52.26578 5.93154 36137 ft 433 kts 300°
2026-05-08 20:36 52.29465 5.84525 36148 ft 432 kts 300°
2026-05-08 20:37 52.32326 5.75946 36143 ft 431 kts 300°
2026-05-08 20:37 52.35201 5.67296 36140 ft 431 kts 300°
2026-05-08 20:38 52.38040 5.58723 36158 ft 431 kts 300°
2026-05-08 20:38 52.40891 5.50084 36164 ft 430 kts 300°
2026-05-08 20:39 52.43731 5.41446 36156 ft 430 kts 299°
2026-05-08 20:39 52.46558 5.32821 36154 ft 429 kts 299°
2026-05-08 20:40 52.49367 5.24217 36150 ft 429 kts 299°
2026-05-08 20:40 52.52207 5.15491 36458 ft 431 kts 299°
2026-05-08 20:40 52.53606 5.11181 36676 ft 431 kts 299°
2026-05-08 20:41 52.55001 5.06875 36904 ft 430 kts 298°
2026-05-08 20:41 52.56422 5.02482 37060 ft 431 kts 298°
2026-05-08 20:41 52.57818 4.98159 37218 ft 432 kts 298°
2026-05-08 20:41 52.59237 4.93755 37452 ft 431 kts 298°
2026-05-08 20:42 52.60619 4.89459 37665 ft 431 kts 298°
2026-05-08 20:42 52.62018 4.85100 37791 ft 432 kts 298°
2026-05-08 20:42 52.63424 4.80715 37948 ft 433 kts 298°
2026-05-08 20:42 52.64827 4.76328 38103 ft 432 kts 298°
2026-05-08 20:43 52.66229 4.71941 38129 ft 435 kts 297°
2026-05-08 20:43 52.69042 4.63108 38143 ft 434 kts 297°
2026-05-08 20:44 52.71836 4.54304 38135 ft 432 kts 297°
2026-05-08 20:44 52.74607 4.45542 38138 ft 430 kts 297°
2026-05-08 20:45 52.77365 4.36789 38146 ft 428 kts 297°
2026-05-08 20:45 52.80102 4.28071 38150 ft 428 kts 297°
2026-05-08 20:46 52.82837 4.19330 38156 ft 428 kts 297°
2026-05-08 20:46 52.85550 4.10626 38157 ft 428 kts 297°
2026-05-08 20:47 52.88277 4.01846 38160 ft 430 kts 297°
2026-05-08 20:47 52.91004 3.93032 38170 ft 431 kts 297°
2026-05-08 20:48 52.93735 3.84175 38176 ft 432 kts 297°
2026-05-08 20:48 52.96468 3.75280 38188 ft 433 kts 296°
2026-05-08 20:49 52.99198 3.66357 38178 ft 434 kts 296°
2026-05-08 20:49 53.01925 3.57414 38194 ft 434 kts 296°
2026-05-08 20:50 53.04642 3.48470 38186 ft 434 kts 296°
2026-05-08 20:50 53.07353 3.39516 38162 ft 433 kts 296°
2026-05-08 20:51 53.09972 3.30492 38155 ft 433 kts 290°
2026-05-08 20:51 53.11463 3.20806 38145 ft 432 kts 282°
2026-05-08 20:52 53.12701 3.11067 38144 ft 432 kts 282°
2026-05-08 20:52 53.13974 3.01247 38172 ft 432 kts 282°
2026-05-08 20:53 53.15253 2.91476 38173 ft 432 kts 282°
2026-05-08 20:53 53.16527 2.81711 38177 ft 432 kts 282°
2026-05-08 20:54 53.17797 2.71900 38177 ft 432 kts 282°
2026-05-08 20:54 53.19055 2.62113 38174 ft 432 kts 282°
2026-05-08 20:55 53.20314 2.52261 38169 ft 432 kts 282°
2026-05-08 20:55 53.21547 2.42491 38175 ft 432 kts 282°
2026-05-08 20:56 53.22779 2.32616 38173 ft 433 kts 282°
2026-05-08 20:56 53.23993 2.22812 38183 ft 433 kts 282°
2026-05-08 20:57 53.25199 2.13019 38177 ft 433 kts 282°
2026-05-08 20:57 53.26407 2.03136 38172 ft 432 kts 281°
2026-05-08 20:58 53.27597 1.93329 38182 ft 432 kts 281°
2026-05-08 20:58 53.28784 1.83478 38174 ft 432 kts 281°
2026-05-08 20:59 53.29961 1.73639 38163 ft 433 kts 281°
2026-05-08 20:59 53.31133 1.63765 38174 ft 433 kts 281°
2026-05-08 21:00 53.32295 1.53917 38173 ft 433 kts 281°
2026-05-08 21:00 53.33557 1.44110 38178 ft 432 kts 283°
2026-05-08 21:01 53.35019 1.34334 38177 ft 432 kts 284°
2026-05-08 21:01 53.36463 1.24619 38160 ft 431 kts 283°
2026-05-08 21:02 53.37882 1.14822 37743 ft 427 kts 283°
2026-05-08 21:02 53.38566 1.10044 37476 ft 420 kts 283°
2026-05-08 21:02 53.39243 1.05285 37210 ft 414 kts 283°
2026-05-08 21:02 53.39902 1.00644 36932 ft 409 kts 283°
2026-05-08 21:03 53.40552 0.96049 36666 ft 404 kts 283°
2026-05-08 21:03 53.41191 0.91514 36405 ft 400 kts 283°
2026-05-08 21:03 53.41829 0.86978 36145 ft 395 kts 283°
2026-05-08 21:03 53.42450 0.82549 35892 ft 392 kts 283°
2026-05-08 21:04 53.43073 0.78100 35625 ft 389 kts 283°
2026-05-08 21:04 53.43684 0.73714 35386 ft 386 kts 283°
2026-05-08 21:04 53.44298 0.69302 35146 ft 384 kts 283°
2026-05-08 21:04 53.44898 0.64973 34901 ft 383 kts 283°
2026-05-08 21:05 53.45500 0.60621 34655 ft 381 kts 283°
2026-05-08 21:05 53.46091 0.56335 34418 ft 380 kts 283°
2026-05-08 21:05 53.46683 0.52034 34181 ft 379 kts 283°
2026-05-08 21:05 53.47275 0.47717 33921 ft 377 kts 282°
2026-05-08 21:06 53.47916 0.43428 33634 ft 377 kts 287°
2026-05-08 21:06 53.48893 0.39376 33363 ft 377 kts 294°
2026-05-08 21:06 53.50214 0.35557 33082 ft 378 kts 302°
2026-05-08 21:06 53.51745 0.31976 32830 ft 377 kts 303°
2026-05-08 21:07 53.53285 0.28429 32563 ft 376 kts 303°
2026-05-08 21:07 53.54812 0.24909 32272 ft 371 kts 303°
2026-05-08 21:07 53.56325 0.21400 31913 ft 368 kts 302°
2026-05-08 21:07 53.57801 0.17955 31546 ft 365 kts 302°
2026-05-08 21:08 53.59288 0.14468 31190 ft 362 kts 302°
2026-05-08 21:08 53.60735 0.11064 30842 ft 360 kts 302°
2026-05-08 21:08 53.62196 0.07616 30492 ft 357 kts 302°
2026-05-08 21:08 53.63627 0.04238 30139 ft 355 kts 302°
2026-05-08 21:09 53.65055 0.00858 29735 ft 353 kts 301°
2026-05-08 21:09 53.66474 -0.02500 29364 ft 350 kts 301°
2026-05-08 21:09 53.67877 -0.05825 29004 ft 347 kts 301°
2026-05-08 21:09 53.69269 -0.09127 28640 ft 344 kts 301°
2026-05-08 21:10 53.70664 -0.12384 28294 ft 342 kts 302°
2026-05-08 21:10 53.72118 -0.15562 27934 ft 340 kts 303°
2026-05-08 21:10 53.73579 -0.18683 27578 ft 337 kts 304°
2026-05-08 21:10 53.75036 -0.21789 27270 ft 336 kts 303°
2026-05-08 21:11 53.76480 -0.24883 26898 ft 336 kts 303°
2026-05-08 21:11 53.77940 -0.28012 26191 ft 342 kts 305°
2026-05-08 21:11 53.79691 -0.30853 25293 ft 357 kts 320°
2026-05-08 21:11 53.81826 -0.32985 24586 ft 365 kts 329°
2026-05-08 21:12 53.84101 -0.34862 24028 ft 363 kts 330°
2026-05-08 21:12 53.86373 -0.36705 23451 ft 360 kts 330°
2026-05-08 21:12 53.88622 -0.38531 22854 ft 357 kts 330°
2026-05-08 21:12 53.90850 -0.40352 22283 ft 353 kts 330°
2026-05-08 21:13 53.93049 -0.42163 21733 ft 350 kts 330°
2026-05-08 21:13 53.95235 -0.43974 21171 ft 347 kts 330°
2026-05-08 21:13 53.97394 -0.45771 20633 ft 344 kts 330°
2026-05-08 21:13 53.99528 -0.47551 20228 ft 338 kts 330°
2026-05-08 21:14 54.01637 -0.49316 19899 ft 337 kts 330°
2026-05-08 21:14 54.03734 -0.51075 19564 ft 336 kts 330°
2026-05-08 21:14 54.05828 -0.52834 19230 ft 335 kts 330°
2026-05-08 21:14 54.07916 -0.54590 18906 ft 334 kts 330°
2026-05-08 21:15 54.09999 -0.56343 18578 ft 333 kts 330°
2026-05-08 21:15 54.12076 -0.58094 18223 ft 332 kts 330°
2026-05-08 21:15 54.14148 -0.59842 17872 ft 331 kts 330°
2026-05-08 21:15 54.16204 -0.61578 17530 ft 329 kts 330°
2026-05-08 21:16 54.18249 -0.63306 17205 ft 327 kts 330°
2026-05-08 21:16 54.20284 -0.65028 16884 ft 325 kts 330°
2026-05-08 21:16 54.22302 -0.66738 16569 ft 322 kts 330°
2026-05-08 21:16 54.24301 -0.68434 16257 ft 320 kts 330°
2026-05-08 21:17 54.26293 -0.70125 15955 ft 319 kts 330°
2026-05-08 21:17 54.28272 -0.71808 15644 ft 317 kts 330°
2026-05-08 21:17 54.30247 -0.73489 15329 ft 316 kts 330°
2026-05-08 21:17 54.32185 -0.75140 15030 ft 314 kts 330°
2026-05-08 21:18 54.34141 -0.76809 14717 ft 313 kts 330°
2026-05-08 21:18 54.36086 -0.78469 14417 ft 312 kts 330°
2026-05-08 21:18 54.38027 -0.80128 14107 ft 310 kts 330°
2026-05-08 21:18 54.39950 -0.81773 13788 ft 309 kts 330°
2026-05-08 21:19 54.41875 -0.83422 13447 ft 307 kts 330°
2026-05-08 21:19 54.43787 -0.85061 13128 ft 306 kts 330°
2026-05-08 21:19 54.45681 -0.86686 12813 ft 304 kts 330°
2026-05-08 21:19 54.47564 -0.88304 12510 ft 302 kts 330°
2026-05-08 21:20 54.49441 -0.89919 12203 ft 300 kts 330°
2026-05-08 21:20 54.51305 -0.91523 11900 ft 298 kts 330°
2026-05-08 21:20 54.53155 -0.93117 11603 ft 297 kts 330°
2026-05-08 21:20 54.54973 -0.94685 11318 ft 295 kts 330°
2026-05-08 21:21 54.56802 -0.96265 11020 ft 293 kts 330°
2026-05-08 21:21 54.58623 -0.97839 10726 ft 292 kts 330°
2026-05-08 21:21 54.60447 -0.99418 10322 ft 295 kts 331°
2026-05-08 21:21 54.62302 -1.01026 9992 ft 294 kts 331°
2026-05-08 21:22 54.64107 -1.02591 9659 ft 293 kts 331°
2026-05-08 21:22 54.65926 -1.04170 9334 ft 292 kts 331°
2026-05-08 21:22 54.67735 -1.05741 9027 ft 290 kts 331°
2026-05-08 21:22 54.69538 -1.07309 8724 ft 289 kts 331°
2026-05-08 21:23 54.71329 -1.08868 8428 ft 287 kts 331°
2026-05-08 21:23 54.73105 -1.10416 8131 ft 286 kts 331°
2026-05-08 21:23 54.74278 -1.11439 7936 ft 285 kts 331°
2026-05-08 21:23 54.76042 -1.12978 7643 ft 283 kts 332°
2026-05-08 21:24 54.77793 -1.14508 7356 ft 282 kts 332°
2026-05-08 21:24 54.79545 -1.16040 7066 ft 281 kts 332°
2026-05-08 21:24 54.81282 -1.17561 6781 ft 280 kts 332°
2026-05-08 21:24 54.83018 -1.19083 6482 ft 279 kts 332°
2026-05-08 21:25 54.84743 -1.20596 6176 ft 278 kts 332°
2026-05-08 21:25 54.86465 -1.22107 5874 ft 276 kts 332°
2026-05-08 21:25 54.88171 -1.23606 5593 ft 275 kts 332°
2026-05-08 21:25 54.89888 -1.25116 5306 ft 274 kts 332°
2026-05-08 21:26 54.91564 -1.26593 5071 ft 271 kts 332°
2026-05-08 21:26 54.93230 -1.28060 4956 ft 263 kts 332°
2026-05-08 21:26 54.94851 -1.29490 4821 ft 256 kts 332°
2026-05-08 21:26 54.96403 -1.30859 4698 ft 249 kts 332°
2026-05-08 21:27 54.97945 -1.32222 4466 ft 247 kts 332°
2026-05-08 21:27 54.99472 -1.33573 4247 ft 245 kts 332°
2026-05-08 21:27 55.00960 -1.34890 4057 ft 238 kts 332°
2026-05-08 21:27 55.02419 -1.36184 3821 ft 231 kts 332°
2026-05-08 21:28 55.03753 -1.37639 3574 ft 224 kts 324°
2026-05-08 21:28 55.05008 -1.39202 3357 ft 216 kts 323°
2026-05-08 21:28 55.06196 -1.40677 3167 ft 207 kts 323°
2026-05-08 21:28 55.07356 -1.42107 2940 ft 199 kts 324°
2026-05-08 21:29 55.08463 -1.43464 2726 ft 193 kts 324°
2026-05-08 21:29 55.09392 -1.45094 2465 ft 187 kts 293°
2026-05-08 21:29 55.09501 -1.47236 2322 ft 174 kts 254°
2026-05-08 21:29 55.09073 -1.49160 2206 ft 168 kts 245°
2026-05-08 21:30 55.08587 -1.50960 2088 ft 164 kts 244°
2026-05-08 21:30 55.08101 -1.52766 2024 ft 164 kts 244°
2026-05-08 21:30 55.07617 -1.54579 1890 ft 166 kts 245°
2026-05-08 21:30 55.07141 -1.56367 1735 ft 160 kts 244°
2026-05-08 21:31 55.06689 -1.58067 1493 ft 151 kts 244°
2026-05-08 21:31 55.06249 -1.59722 1294 ft 148 kts 245°
2026-05-08 21:31 55.05820 -1.61327 1107 ft 148 kts 244°
2026-05-08 21:31 55.05387 -1.62986 864 ft 150 kts 245°
2026-05-08 21:32 55.04951 -1.64628 669 ft 150 kts 245°
2026-05-08 21:32 55.04509 -1.66276 467 ft 151 kts 246°
2026-05-08 21:32 55.04065 -1.67953 260 ft 152 kts 246°
2026-05-08 21:32 55.03681 -1.69400 255 ft 103 kts 245°
2026-05-08 21:33 55.03580 -1.69884 260 ft 24 kts 275°
2026-05-08 21:33 55.03594 -1.70155 263 ft 15 kts 274°
2026-05-08 21:33 55.03596 -1.70201 264 ft 2 kts 274°
2026-05-08 21:33 55.03597 -1.70236 264 ft 5 kts 273°
2026-05-08 21:34 55.03600 -1.70338 266 ft 11 kts 273°
2026-05-08 21:34 55.03600 -1.70445 266 ft 1 kts 270°
2026-05-08 21:34 55.03599 -1.70469 266 ft 4 kts 265°
2026-05-08 21:34 55.03593 -1.70566 266 ft 12 kts 264°
2026-05-08 21:35 55.03596 -1.70759 266 ft 18 kts 275°
2026-05-08 21:35 55.03581 -1.70867 266 ft 8 kts 242°
2026-05-08 21:35 55.03577 -1.70927 266 ft 1 kts 274°
2026-05-08 21:35 55.03577 -1.70936 266 ft 0 kts 274°